Wind_Speed
9 9 9 8 8 8 9 10 10 10 10 10 10 10 10 9 10 10 11 11 11 10 10 10 9 9 9 9 10 11 12 12 12 12 13 13 13 13 13 13 13 13 13
9 10 9 8 9 9 10 10 10 10 10 10 10 10 10 10 10 10 10 10 11 11 10 10 10 10 10 10 11 12 12 12 13 13 13 14 14 14 14 13 13 14 15
9 10 9 9 9 10 10 10 10 10 10 10 10 10 10 10 10 10 10 10 10 10 10 11 11 10 10 11 11 11 12 12 13 13 14 15 15 14 14 14 14 15 16
9 9 9 10 10 10 10 10 10 10 10 11 10 10 10 11 11 11 11 11 11 11 11 11 11 11 11 11 12 12 13 13 14 14 15 15 15 15 16 16 16 16 16
8 8 9 9 10 11 11 11 10 10 11 11 10 10 11 11 11 11 11 12 12 12 12 12 12 12 12 13 14 14 14 15 15 15 15 16 16 17 17 17 17 17 17
7 8 8 9 9 11 11 11 10 10 10 10 11 10 10 11 11 11 12 12 12 12 12 13 13 13 13 13 14 15 15 15 15 16 16 16 16 17 18 18 18 18 18
8 9 9 10 10 11 11 11 10 10 10 11 11 11 11 11 12 12 12 12 12 13 13 13 14 14 14 14 15 15 15 15 16 16 17 17 17 18 19 20 20 19 19
9 9 9 9 9 9 9 10 10 11 11 12 12 11 11 12 12 12 12 13 13 13 14 14 15 14 15 15 15 15 15 15 16 16 17 18 18 19 19 20 20 20 20
9 9 9 9 9 9 9 9 10 11 11 11 12 12 12 12 12 12 12 13 13 14 14 14 15 15 15 15 15 15 16 16 16 17 18 18 19 19 19 19 19 19 19
10 10 10 9 10 10 10 10 10 10 11 11 11 12 12 12 13 13 14 14 14 14 15 15 15 15 15 16 16 16 16 16 17 17 18 19 19 20 20 20 20 20 20
10 10 10 10 10 11 11 10 11 11 11 11 11 12 12 13 13 14 14 14 15 15 16 16 16 16 16 16 16 16 17 17 17 18 18 19 19 19 19 19 19 19 20
10 10 10 11 11 12 12 11 12 12 12 12 12 13 14 14 14 15 15 15 15 16 16 16 16 16 16 16 16 17 17 18 18 18 18 18 18 18 19 18 19 19 19
10 10 11 11 12 12 12 12 12 13 13 14 14 15 15 16 16 16 16 16 16 16 16 17 17 16 16 16 17 18 18 17 17 18 18 18 17 18 18 18 18 19 19
10 11 11 11 12 13 13 14 14 14 14 15 15 16 16 17 17 16 16 16 16 16 16 16 16 17 17 17 17 18 18 18 18 18 18 17 17 17 18 18 18 19 19
11 12 12 13 13 14 14 15 15 15 16 16 16 16 17 17 17 16 16 16 16 16 16 16 16 17 17 18 18 18 18 18 18 18 18 18 18 18 18 18 19 19 20
13 13 13 14 15 15 15 15 16 16 16 17 17 17 17 16 16 16 16 16 17 17 17 17 17 18 18 19 19 19 19 19 19 18 19 19 19 19 19 19 20 21 21
14 14 15 15 15 16 16 16 17 17 17 18 17 17 17 16 16 17 17 17 18 18 18 18 18 19 19 19 19 19 19 19 19 20 20 20 20 20 20 21 22 23 23
15 15 15 16 17 17 17 18 18 18 17 17 17 17 18 17 17 18 18 19 19 19 19 19 20 20 20 20 20 20 19 19 20 20 21 21 21 22 22 23 23 23 24
16 16 17 18 18 19 19 18 18 17 17 18 18 18 18 18 18 19 20 20 20 20 21 21 20 21 21 21 21 21 21 21 21 22 22 22 22 22 23 23 23 24 24
18 19 19 19 20 20 19 19 19 18 18 19 18 18 19 19 20 20 21 21 21 21 21 21 21 21 21 22 22 22 22 22 23 23 23 23 23 23 23 23 24 25 25
20 20 20 20 20 20 20 20 20 20 20 20 20 20 21 21 22 22 22 22 22 21 21 21 21 21 21 22 23 23 23 24 24 24 24 24 24 24 24 25 25 25 25
21 21 21 21 21 21 21 21 21 21 21 21 21 21 22 22 22 22 22 22 22 21 21 21 21 21 22 22 23 23 24 23 23 24 24 25 25 25 25 26 26 26 26
21 22 22 22 22 22 22 22 22 22 22 22 22 22 22 22 22 21 21 21 21 21 21 21 22 23 23 23 24 24 24 24 24 25 25 26 26 27 27 27 27 27 28
23 23 23 23 23 23 23 23 23 23 23 23 22 22 22 22 22 22 22 22 22 22 23 23 24 25 25 25 25 25 25 26 26 26 26 27 28 28 28 28 28 28 28
25 25 25 25 25 25 24 24 24 25 24 24 23 23 23 23 23 24 24 24 24 24 25 25 25 25 26 26 26 26 26 27 27 27 28 28 28 28 28 29 29 29 29
26 26 26 26 25 25 25 25 25 25 25 25 24 23 24 25 25 25 25 25 25 25 26 26 26 26 26 27 28 28 28 29 29 29 30 30 29 28 28 28 29 30 30
Wind_Direction
272 276 278 280 280 281 282 283 284 279 274 275 277 277 276 277 277 277 274 273 272 272 272 272 273 272 269 268 269 266 262 259 258 257 262 262 261 260 260 262 261 263 261
275 278 276 277 280 281 282 286 284 278 275 275 277 277 276 276 277 278 276 272 273 275 275 276 277 276 273 270 269 266 262 262 262 262 263 262 261 259 260 263 264 266 267
274 274 272 274 277 278 278 281 278 274 277 277 279 278 277 277 278 280 279 278 275 275 276 275 275 272 274 273 270 269 266 265 265 265 263 262 262 259 261 264 265 265 265
273 273 272 272 275 279 279 280 277 271 273 276 276 275 275 276 277 276 278 278 276 276 276 274 274 274 272 272 272 272 270 268 267 266 264 265 264 262 263 265 265 266 265
277 277 275 272 278 279 278 279 277 274 274 275 274 276 277 277 276 275 276 277 277 278 278 277 275 274 273 272 273 275 275 272 268 268 267 267 266 264 265 267 268 268 266
282 285 281 276 279 278 276 277 275 276 274 273 274 277 279 280 279 278 278 277 277 279 279 278 275 273 273 273 274 275 277 273 270 268 268 268 268 267 267 268 268 268 267
283 284 284 280 280 280 278 277 278 277 274 273 274 275 278 278 281 283 281 279 279 279 278 278 276 275 274 274 276 277 278 276 272 271 271 271 271 269 269 268 268 267 267
283 281 285 284 282 285 287 286 282 280 279 275 273 274 276 279 282 283 281 280 280 279 279 279 277 277 277 277 277 277 276 277 277 275 273 272 272 273 272 269 266 265 266
284 284 283 283 287 290 289 288 288 283 278 277 275 275 276 277 280 282 283 281 281 280 279 280 278 277 276 277 277 278 277 278 278 278 277 275 273 274 273 271 268 267 267
289 288 285 285 287 288 287 284 286 285 279 277 277 278 279 282 283 284 284 283 282 282 281 281 280 278 278 278 277 279 278 281 281 280 279 276 275 275 273 271 268 267 267
291 291 290 290 289 289 289 285 288 286 282 279 278 279 282 284 285 283 283 282 282 282 283 283 281 278 279 278 278 279 279 281 282 281 280 279 279 277 273 270 267 266 267
294 292 292 291 290 290 290 287 287 288 286 282 281 281 282 284 285 283 282 282 282 282 282 283 281 279 279 279 280 280 280 281 282 282 283 284 281 279 276 271 267 267 267
296 295 293 293 291 291 291 288 287 287 285 284 284 283 283 283 284 284 283 282 282 282 283 284 283 280 279 278 280 280 281 281 282 282 283 284 282 279 277 273 271 269 269
294 294 296 296 295 293 292 291 289 287 286 286 286 285 286 286 287 286 285 284 284 284 284 284 283 282 280 281 281 281 281 280 280 281 281 282 282 281 277 274 273 271 271
295 296 296 297 296 295 293 292 293 289 286 286 286 287 288 286 287 285 285 285 286 285 285 284 284 282 281 280 281 281 281 280 280 281 280 281 281 280 279 278 277 274 274
296 297 298 296 295 294 294 293 292 290 287 287 287 287 287 285 287 286 286 285 287 287 285 283 282 284 283 282 282 282 281 281 281 279 280 281 281 281 278 277 276 275 275
293 295 296 296 297 298 295 294 292 291 290 289 286 285 285 285 286 287 286 286 287 287 285 284 283 285 284 283 283 283 282 281 280 279 279 278 278 279 278 276 277 278 277
291 291 293 295 297 298 297 296 293 290 288 287 286 285 285 285 286 286 287 288 287 286 286 285 284 284 284 283 283 283 282 281 280 280 280 278 279 279 279 278 279 279 279
290 291 293 295 296 296 296 295 293 291 290 288 286 285 285 284 285 286 287 288 287 286 286 285 285 284 285 284 282 282 281 281 281 282 282 282 282 281 282 281 281 280 279
290 291 292 294 295 295 295 294 293 292 290 288 287 286 287 286 286 286 287 287 286 285 285 285 284 284 285 284 283 281 281 280 281 282 283 283 283 282 282 283 283 282 282
290 290 291 293 294 294 293 293 293 291 290 288 287 287 287 288 288 288 288 287 285 284 285 285 285 285 285 284 284 282 281 280 280 281 283 283 283 283 283 282 282 283 283
289 290 290 291 292 292 291 291 292 291 289 287 287 287 287 288 289 289 289 286 284 284 283 283 284 285 285 285 284 283 283 281 282 282 282 283 283 283 283 282 281 282 282
288 289 290 291 291 291 291 291 291 291 289 288 288 288 289 288 289 289 289 286 284 283 282 283 284 285 285 285 284 284 283 283 283 283 283 283 283 283 283 281 280 280 282
287 288 289 290 289 289 291 291 290 289 289 289 288 288 288 287 287 288 288 286 284 282 282 282 283 285 286 286 285 284 284 283 283 282 282 283 283 283 282 280 280 280 281
285 287 288 288 287 287 288 290 290 289 289 288 287 287 287 287 287 288 288 287 285 283 282 283 284 285 287 286 285 285 285 284 283 283 284 285 284 282 281 280 279 280 281
284 286 287 288 287 286 287 287 289 289 289 286 286 286 286 287 288 288 288 288 287 285 284 284 285 286 287 286 286 286 286 285 284 285 286 286 285 283 281 279 278 279 280
Height
5862 5862 5862 5862 5862 5861 5861 5861 5861 5861 5860 5860 5860 5860 5859 5859 5859 5859 5859 5859 5859 5859 5859 5858 5858 5858 5858 5858 5858 5857 5857 5858 5858 5859 5859 5860 5860 5860 5861 5861 5861 5861 5861
5860 5860 5860 5860 5860 5860 5859 5859 5859 5858 5858 5858 5858 5857 5857 5857 5857 5857 5857 5857 5857 5857 5856 5856 5856 5856 5856 5856 5855 5855 5855 5855 5856 5856 5856 5857 5857 5857 5858 5858 5858 5859 5859
5858 5858 5858 5858 5858 5857 5857 5857 5857 5856 5856 5856 5855 5855 5855 5855 5855 5855 5855 5855 5855 5854 5854 5854 5854 5853 5853 5853 5853 5853 5853 5853 5853 5853 5854 5854 5854 5854 5855 5855 5855 5856 5856
5856 5856 5855 5855 5855 5855 5855 5854 5854 5854 5854 5853 5853 5853 5853 5853 5852 5852 5852 5852 5852 5852 5852 5851 5851 5851 5851 5850 5850 5850 5850 5850 5850 5850 5850 5850 5851 5851 5851 5852 5852 5852 5852
5854 5854 5853 5853 5853 5853 5852 5852 5852 5852 5851 5851 5851 5851 5850 5850 5850 5850 5850 5850 5849 5849 5849 5849 5849 5848 5848 5847 5847 5846 5846 5846 5846 5846 5846 5847 5847 5847 5848 5848 5848 5848 5848
5852 5852 5851 5851 5851 5850 5850 5849 5849 5849 5849 5849 5848 5848 5848 5848 5847 5847 5847 5847 5846 5846 5846 5846 5845 5845 5845 5845 5844 5844 5843 5843 5843 5843 5843 5843 5843 5843 5843 5843 5844 5844 5844
5850 5850 5849 5849 5848 5848 5847 5846 5846 5846 5846 5846 5846 5845 5845 5845 5844 5844 5844 5843 5843 5843 5843 5842 5842 5842 5842 5841 5841 5840 5840 5840 5839 5839 5839 5839 5839 5838 5838 5838 5839 5839 5839
5848 5848 5847 5846 5846 5845 5844 5844 5844 5843 5843 5843 5843 5843 5843 5843 5842 5841 5841 5840 5840 5840 5839 5839 5839 5838 5838 5838 5837 5837 5837 5836 5836 5835 5835 5834 5834 5834 5833 5833 5834 5834 5834
5846 5846 5845 5844 5844 5843 5842 5842 5841 5841 5840 5840 5840 5840 5840 5839 5839 5838 5838 5837 5837 5836 5836 5835 5835 5834 5834 5834 5833 5833 5833 5832 5832 5831 5830 5830 5829 5828 5828 5828 5828 5829 5829
5844 5843 5843 5842 5841 5841 5840 5839 5839 5838 5838 5837 5837 5837 5837 5836 5836 5835 5834 5834 5833 5832 5832 5831 5831 5830 5830 5830 5829 5829 5829 5828 5828 5827 5826 5825 5824 5823 5822 5821 5822 5823 5824
5842 5841 5840 5840 5839 5838 5838 5837 5836 5835 5835 5835 5834 5834 5833 5833 5832 5832 5831 5830 5829 5829 5828 5827 5827 5826 5826 5826 5825 5825 5824 5824 5823 5822 5821 5820 5819 5817 5816 5816 5816 5818 5818
5839 5839 5838 5837 5836 5836 5835 5834 5833 5832 5832 5831 5831 5830 5830 5829 5828 5828 5827 5826 5825 5825 5824 5823 5822 5822 5822 5821 5821 5820 5820 5819 5818 5817 5816 5815 5814 5812 5811 5811 5812 5813 5813
5837 5836 5835 5834 5833 5833 5832 5831 5830 5829 5828 5827 5827 5826 5825 5824 5824 5823 5822 5822 5821 5820 5819 5819 5818 5817 5817 5817 5816 5816 5815 5814 5813 5813 5812 5811 5809 5808 5807 5807 5807 5808 5808
5834 5833 5832 5831 5830 5829 5828 5827 5826 5825 5824 5823 5822 5822 5821 5820 5819 5818 5818 5817 5816 5816 5815 5814 5813 5813 5812 5812 5811 5811 5810 5809 5808 5808 5807 5806 5805 5804 5803 5803 5803 5803 5803
5831 5830 5829 5828 5827 5826 5825 5823 5822 5821 5820 5819 5818 5817 5816 5815 5814 5813 5813 5812 5812 5811 5811 5810 5809 5808 5807 5807 5806 5806 5805 5804 5803 5802 5802 5801 5800 5799 5799 5799 5798 5798 5798
5828 5827 5826 5824 5823 5822 5821 5819 5818 5817 5815 5814 5813 5812 5812 5811 5810 5809 5808 5807 5807 5806 5806 5805 5804 5803 5802 5802 5801 5800 5799 5799 5798 5797 5796 5796 5795 5794 5794 5793 5793 5793 5792
5824 5823 5822 5821 5819 5818 5816 5815 5814 5812 5811 5810 5809 5808 5807 5806 5805 5804 5803 5802 5801 5801 5800 5799 5799 5798 5797 5796 5795 5794 5794 5793 5792 5791 5791 5790 5789 5788 5788 5787 5787 5786 5786
5821 5819 5818 5817 5815 5814 5812 5810 5809 5807 5806 5805 5804 5803 5802 5801 5800 5799 5798 5797 5796 5795 5794 5793 5793 5792 5791 5790 5790 5789 5788 5787 5786 5785 5785 5784 5783 5782 5781 5781 5780 5779 5778
5816 5815 5814 5812 5811 5809 5807 5805 5804 5802 5801 5800 5799 5798 5797 5796 5795 5794 5792 5791 5790 5789 5788 5787 5786 5786 5785 5784 5783 5783 5781 5781 5780 5779 5778 5777 5776 5775 5774 5773 5772 5772 5771
5811 5810 5809 5807 5806 5804 5802 5800 5799 5797 5796 5795 5794 5792 5791 5790 5789 5788 5786 5785 5784 5783 5781 5781 5780 5779 5778 5777 5776 5776 5775 5773 5773 5772 5770 5769 5768 5767 5767 5766 5765 5764 5763
5806 5805 5803 5802 5800 5799 5797 5795 5794 5792 5791 5789 5788 5787 5785 5784 5782 5781 5780 5778 5777 5776 5775 5774 5773 5772 5771 5770 5770 5769 5767 5766 5765 5764 5763 5762 5761 5760 5758 5757 5757 5756 5755
5800 5799 5798 5796 5795 5793 5791 5789 5788 5786 5785 5783 5782 5781 5779 5777 5776 5774 5773 5771 5770 5769 5768 5768 5767 5766 5765 5764 5762 5761 5760 5759 5758 5757 5755 5754 5752 5751 5750 5749 5748 5747 5746
5794 5793 5791 5790 5788 5786 5785 5783 5782 5780 5779 5777 5776 5774 5773 5771 5769 5768 5766 5765 5764 5763 5762 5761 5760 5759 5758 5757 5755 5754 5752 5751 5750 5749 5747 5746 5744 5743 5741 5740 5739 5738 5737
5788 5786 5785 5783 5781 5780 5778 5776 5775 5773 5772 5770 5769 5767 5766 5764 5763 5761 5760 5758 5757 5756 5755 5754 5753 5752 5750 5749 5747 5746 5744 5743 5741 5739 5738 5737 5735 5733 5732 5730 5729 5728 5728
5780 5779 5777 5776 5774 5773 5771 5769 5768 5766 5765 5763 5761 5760 5759 5757 5756 5754 5753 5751 5750 5748 5747 5746 5745 5743 5741 5740 5738 5737 5736 5734 5733 5731 5729 5727 5725 5724 5722 5721 5720 5719 5718
5772 5771 5769 5768 5766 5765 5763 5762 5760 5759 5757 5756 5754 5753 5751 5750 5748 5746 5745 5743 5742 5741 5739 5738 5736 5734 5733 5731 5729 5728 5726 5725 5723 5722 5719 5717 5715 5713 5713 5712 5710 5709 5708